AC7PD Weather Reports


time (UTC)temp
C
wind
direction
speed
KPH
gust
KPH
rain 1hr
cm
rain 24hr
cm
rain mn
cm
humidity
%
barometer
mb
20260505052004 16 191 0.0 3.2 0.00 0.00 0.00 71 1011.7
20260505051004 16 236 3.2 4.8 0.00 0.00 0.00 71 1011.6
20260505041004 18 222 4.8 11.3 0.00 0.00 0.00 65 1010.9
20260505040005 18 259 1.6 4.8 0.00 0.00 0.00 64 1010.7
20260505035004 19 216 3.2 8.0 0.00 0.00 0.00 62 1010.6
20260505034004 20 228 0.0 3.2 0.00 0.00 0.00 61 1010.4
20260505032004 21 273 3.2 11.3 0.00 0.00 0.00 58 1010.0
20260505031003 21 243 1.6 4.8 0.00 0.00 0.00 56 1009.9
20260505030004 22 280 3.2 8.0 0.00 0.00 0.00 55 1009.7
20260505023004 23 256 6.4 11.3 0.00 0.00 0.00 51 1009.5
20260505022003 24 358 1.6 8.0 0.00 0.00 0.00 50 1009.5
20260505015137 25 308 3.2 4.8 0.00 0.00 0.00 45 1009.5
20260505014137 25 344 6.4 8.0 0.00 0.00 0.00 44 1009.5
20260505013137 26 300 1.6 9.7 0.00 0.00 0.00 44 1009.5
20260505011136 26 233 6.4 9.7 0.00 0.00 0.00 38 1009.6
20260505010136 27 264 4.8 9.7 0.00 0.00 0.00 36 1009.6
20260505004137 27 332 3.2 9.7 0.00 0.00 0.00 36 1009.6
20260505003136 27 349 3.2 4.8 0.00 0.00 0.00 35 1009.6
20260505002137 28 322 4.8 8.0 0.00 0.00 0.00 33 1009.4
20260505001137 27 316 3.2 9.7 0.00 0.00 0.00 32 1009.5
20260505000137 27 0 4.8 11.3 0.00 0.00 0.00 31 1009.5
20260504235137 27 332 3.2 12.9 0.00 0.00 0.00 31 1009.4
20260504234137 28 327 3.2 8.0 0.00 0.00 0.00 31 1009.4
20260504233136 27 10 4.8 8.0 0.00 0.00 0.00 32 1009.4
20260504231137 27 302 8.0 12.9 0.00 0.00 0.00 31 1009.5
20260504230136 28 245 8.0 11.3 0.00 0.00 0.00 31 1009.7
20260504225136 28 342 6.4 14.5 0.00 0.00 0.00 32 1009.9
20260504224136 27 246 11.3 19.3 0.00 0.00 0.00 32 1010.0
20260504223137 28 276 3.2 8.0 0.00 0.00 0.00 33 1010.0
20260504222137 28 318 3.2 8.0 0.00 0.00 0.00 35 1010.2
20260504221136 28 324 3.2 9.7 0.00 0.00 0.00 34 1010.3
20260504220143 28 314 4.8 8.0 0.00 0.00 0.00 34 1010.4
20260504215143 28 267 3.2 12.9 0.00 0.00 0.00 34 1010.3
20260504214137 28 251 3.2 12.9 0.00 0.00 0.00 35 1010.4
20260504212137 28 310 3.2 4.8 0.00 0.00 0.00 37 1010.4
20260504211137 27 326 4.8 9.7 0.00 0.00 0.00 36 1010.4
20260504210137 27 345 3.2 12.9 0.00 0.00 0.00 37 1010.5
20260504205137 27 305 4.8 14.5 0.00 0.00 0.00 39 1010.5
20260504204136 27 295 4.8 14.5 0.00 0.00 0.00 40 1010.4
20260504203137 27 216 8.0 11.3 0.00 0.00 0.00 39 1010.4
20260504202137 27 264 3.2 8.0 0.00 0.00 0.00 40 1010.4
20260504201137 26 197 3.2 11.3 0.00 0.00 0.00 39 1010.5
20260504200137 27 329 3.2 8.0 0.00 0.00 0.00 38 1010.6
20260504195136 26 264 4.8 16.1 0.00 0.00 0.00 39 1010.6
20260504194136 26 233 8.0 12.9 0.00 0.00 0.00 37 1010.6
20260504193136 27 253 4.8 9.7 0.00 0.00 0.00 38 1010.6
20260504192136 26 173 3.2 14.5 0.00 0.00 0.00 38 1010.6
20260504191136 26 185 3.2 4.8 0.00 0.00 0.00 37 1010.7
20260504190137 25 229 1.6 4.8 0.00 0.00 0.00 40 1010.8
20260504185137 25 351 4.8 8.0 0.00 0.00 0.00 40 1010.9
20260504184137 25 240 6.4 9.7 0.00 0.00 0.00 42 1011.0
20260504183136 25 287 1.6 4.8 0.00 0.00 0.00 42 1011.2
20260504182137 24 312 1.6 9.7 0.00 0.00 0.00 46 1011.2
20260504180137 23 204 1.6 8.0 0.00 0.00 0.00 45 1011.1
20260504175137 23 264 4.8 8.0 0.00 0.00 0.00 47 1011.1
20260504174136 22 243 1.6 9.7 0.00 0.00 0.00 48 1011.2
20260504172136 22 244 4.8 12.9 0.00 0.00 0.00 48 1011.2
20260504171137 22 205 1.6 4.8 0.00 0.00 0.00 48 1011.1
20260504170136 21 176 4.8 9.7 0.00 0.00 0.00 47 1011.1
20260504160136 19 243 4.8 11.3 0.00 0.00 0.00 51 1010.9
20260504151136 15 324 0.0 0.0 0.00 0.00 0.00 72 1010.7
20260504150136 14 324 0.0 0.0 0.00 0.00 0.00 78 1010.6
20260504141137 10 324 0.0 0.0 0.00 0.00 0.00 88 1010.1
20260504140137 9 324 0.0 0.0 0.00 0.00 0.00 88 1010.1
20260504130137 8 324 0.0 0.0 0.00 0.00 0.00 88 1009.5
20260504120137 9 324 0.0 0.0 0.00 0.00 0.00 86 1009.5
20260504110137 10 324 0.0 0.0 0.00 0.00 0.00 85 1009.5
20260504100137 10 324 0.0 0.0 0.00 0.00 0.00 84 1009.4
20260504090136 11 324 0.0 0.0 0.00 0.00 0.00 81 1009.5
20260504081136 12 324 0.0 0.0 0.00 0.00 0.00 80 1009.8
20260504080136 12 324 0.0 0.0 0.00 0.00 0.00 80 1009.7
20260504070136 14 324 0.0 0.0 0.00 0.00 0.00 78 1009.6
20260504060136 16 324 0.0 0.0 0.00 0.00 0.00 74 1009.5